Sant Sadurní d´Osormort





Hora UTC 08:00
Temperatura 6.4 ºC
Humitat 87.0 %
Pressió 1018.7 hPa
Pluja 0.0 mm
Velocitat vent 0.0 km/h
Direcció vent WSW

Dades diàries 2021-04-19



Hora UTC (hivern +1h; estiu +2h)
Temperatura (ºC) Humitat (%) Pressió (hPa) Velocitat vent (km/h) Precipitació (mm)
Hora UTC Aire Humitat Pressió Vel. Dir. Vel. Max Dir. Intent. màx 5 min.
00:05 -0.8 89.0 1020.9 0.0 SSW 0.0 0.0
00:10 -0.8 89.0 1021.0 0.0 SSW 0.0 0.0
00:15 -0.8 89.0 1021.0 0.0 SSW 0.0 0.0
00:20 -0.8 89.0 1020.8 0.0 SSW 0.0 0.0
00:25 -0.9 89.0 1020.7 0.0 SSW 0.0 0.0
00:30 -0.9 89.0 1020.7 0.0 SSW 0.0 0.0
00:35 -0.8 89.0 1020.7 0.0 SSW 0.0 0.0
00:40 -0.8 89.0 1020.6 0.0 SSW 0.0 0.0
00:45 -0.9 89.0 1020.6 0.0 SSW 0.0 0.0
00:50 -0.9 89.0 1020.6 0.0 SSW 0.0 0.0
00:55 -0.9 89.0 1020.5 0.0 SSW 0.0 0.0
01:00 -0.9 89.0 1020.4 0.0 SSW 0.0 0.0
01:05 -0.9 89.0 1020.3 0.0 SSW 0.0 0.0
01:10 -0.9 90.0 1020.4 0.0 SSW 0.0 0.0
01:15 -0.9 90.0 1020.3 0.0 SSW 0.0 0.0
01:20 -0.9 90.0 1020.3 0.0 SSW 0.0 0.0
01:25 -0.9 90.0 1020.3 0.0 SSW 0.0 0.0
01:30 -0.9 90.0 1020.3 0.0 SSW 0.0 0.0
01:35 -0.9 90.0 1020.1 0.0 SSW 0.0 0.0
01:40 -0.9 90.0 1020.2 0.0 SSW 0.0 0.0
01:45 -0.9 90.0 1020.2 0.0 SSW 0.0 0.0
01:45 -0.8 90.0 1020.1 0.0 SSW 0.0 0.0
01:55 -0.8 90.0 1020.1 0.0 SSW 0.0 0.0
02:00 -0.8 90.0 1020.1 0.0 SSW 0.0 0.0
02:05 -0.9 90.0 1020.1 0.0 SSW 0.0 0.0
02:10 -0.8 90.0 1020.1 0.0 SSW 0.0 0.0
02:15 -0.8 90.0 1020.1 0.0 SSW 0.0 0.0
02:20 -0.8 90.0 1020.1 0.0 SSW 0.0 0.0
02:25 -0.8 90.0 1020.0 0.0 SSW 0.0 0.0
02:30 -0.9 90.0 1019.9 0.0 SSW 0.0 0.0
02:35 -1.0 90.0 1020.0 0.0 SSW 0.0 0.0
02:40 -1.1 90.0 1020.0 0.0 N 0.0 0.0
02:45 -1.1 90.0 1020.0 0.0 SSW 0.0 0.0
02:50 -1.1 90.0 1019.9 0.0 N 0.0 0.0
02:55 -1.1 90.0 1020.0 0.0 SSW 0.0 0.0
03:00 -1.1 90.0 1020.0 0.0 N 0.0 0.0
03:05 -1.2 90.0 1019.9 0.0 SSW 0.0 0.0
03:10 -1.2 90.0 1019.9 0.0 SSW 0.0 0.0
03:15 -1.3 90.0 1019.8 0.0 SSW 0.0 0.0
03:20 -1.2 91.0 1019.9 0.0 SSW 0.0 0.0
03:25 -1.2 91.0 1019.8 0.0 SSW 0.0 0.0
03:30 -1.3 91.0 1019.7 0.0 N 0.0 0.0
03:35 -1.3 90.0 1019.7 0.0 N 0.0 0.0
03:40 -1.3 91.0 1019.6 0.0 SSW 0.0 0.0
03:45 -1.3 91.0 1019.6 0.0 N 0.0 0.0
03:50 -1.3 91.0 1019.6 0.0 SSW 0.0 0.0
03:50 -1.3 91.0 1019.5 0.0 SSW 0.0 0.0
04:00 -1.3 91.0 1019.6 0.0 SSW 0.0 0.0
04:05 -1.3 91.0 1019.6 0.0 SSW 0.0 0.0
04:10 -1.3 91.0 1019.5 0.0 SSW 0.0 0.0
04:15 -1.4 91.0 1019.5 0.0 SSW 0.0 0.0
04:20 -1.4 91.0 1019.5 0.0 SSW 0.0 0.0
04:25 -1.3 91.0 1019.4 0.0 SSW 0.0 0.0
04:30 -1.3 91.0 1019.4 0.0 SSW 0.0 0.0
04:35 -1.4 91.0 1019.4 0.0 SSW 0.0 0.0
04:40 -1.4 91.0 1019.4 0.0 SSW 0.0 0.0
04:45 -1.4 91.0 1019.4 0.0 SSW 0.0 0.0
04:50 -1.5 91.0 1019.4 0.0 SSW 0.0 0.0
04:55 -1.5 91.0 1019.4 0.0 SSW 0.0 0.0
05:00 -1.6 91.0 1019.4 0.0 SSW 0.0 0.0
05:05 -1.6 91.0 1019.4 0.0 SSW 0.0 0.0
05:10 -1.7 91.0 1019.5 0.0 SSW 0.0 0.0
05:15 -1.7 91.0 1019.5 0.0 SSW 0.0 0.0
05:20 -1.8 91.0 1019.5 0.0 SSW 0.0 0.0
05:25 -1.8 91.0 1019.6 0.0 SSW 0.0 0.0
05:30 -1.7 91.0 1019.6 0.0 SSW 0.0 0.0
05:35 -1.7 91.0 1019.6 0.0 SSW 0.0 0.0
05:40 -1.7 91.0 1019.6 0.0 SSW 0.0 0.0
05:45 -1.7 91.0 1019.6 0.0 SSW 0.0 0.0
05:50 -1.8 91.0 1019.6 0.0 SSW 0.0 0.0
05:55 -1.8 91.0 1019.6 0.0 SSW 0.0 0.0
06:00 -1.7 91.0 1019.7 0.0 SSW 0.0 0.0
06:05 -1.7 91.0 1019.7 0.0 SSW 0.0 0.0
06:10 -1.6 91.0 1019.7 0.0 N 0.0 0.0
06:15 -1.6 91.0 1019.7 0.0 N 0.0 0.0
06:20 -1.6 91.0 1019.7 0.0 N 0.0 0.0
06:25 -1.5 92.0 1019.7 0.0 N 0.0 0.0
06:30 -1.5 91.0 1019.7 0.0 N 0.0 0.0
06:35 -1.4 91.0 1019.7 0.0 SSW 0.0 0.0
06:40 -1.4 92.0 1019.8 0.0 N 0.0 0.0
06:45 -1.3 92.0 1019.7 0.0 N 0.0 0.0
06:50 -1.1 92.0 1019.7 0.0 SSW 0.0 0.0
06:55 -0.9 92.0 1019.8 0.0 SSW 0.0 0.0
07:00 -0.7 92.0 1019.7 0.0 SSW 0.0 0.0
07:05 -0.1 93.0 1019.6 0.0 N 0.0 0.0
07:10 0.6 93.0 1019.5 0.0 N 0.0 0.0
07:15 1.2 93.0 1019.5 0.0 N 0.0 0.0
07:20 1.7 93.0 1019.4 0.0 N 0.0 0.0
07:25 2.3 94.0 1019.3 0.0 N 0.0 0.0
07:30 2.9 94.0 1019.2 0.0 N 0.0 0.0
07:35 3.6 93.0 1019.2 0.0 N 4.8 0.0
07:40 4.1 93.0 1019.0 0.0 N 4.8 0.0
07:45 4.6 92.0 1019.0 0.0 N 1.6 0.0
07:50 5.1 92.0 1018.9 0.0 N 1.6 0.0
07:55 5.8 91.0 1018.8 0.0 N 1.6 0.0
08:00 6.3 89.0 1018.8 0.0 WSW 3.2 0.0
08:00 6.4 87.0 1018.7 0.0 WSW 3.2 0.0
Màxima 6.4 94.0 1021.0 0.0 WSW 4.8 0.0
Mínima -1.8 87.0 1018.7
Total 0.0